STARLINK-34576, 64701

Orbit data source: Space-Track

STARLINK-34576, 64701 is a payload satellite owned by SpaceX/Seattle (US) in LEO that was launched on Sat, 28 Jun 2025 UTC via an FALCON 9 launch vehicle from the Air Force Western Test Range (AFWTR). Payload-class satellites include a variety of spacecraft equipped with specific instruments for various scientific and technological missions. These include communications satellites like Starlink; space stations such as the ISS; scientific satellites like the Hubble; Earth observation satellites from companies like Planet Labs, Umbra, and HawkEye 360; GPS; miniature CubeSats for education and research; and military/defense satellites.

Loading next visibility...
Identifier
64701, 2025-142F
Orbit
LEO
Country
Flag of USUS
Related business
Manufacturer
SpaceX/Seattle
Mission
Operational Commercial Communications
Bus & Motor
STARLINK V2MO, Unknown motor
Mass
575 kg wet, ~530 kg dry
Launch date (UTC)
2025-06-28 (2 months ago)
Launch vehicle
FALCON 9
Launch site
Air Force Western Test Range (AFWTR)
Object type
Payload
Rocket body
Debris
Shape & HBR
Box + 1 Pan, 14.5 m
Radar Cross Section
41.120 m², Large (>1 m²)

Expand to show TLE details & history
Last TLE update: 1 day ago

TLE from 1 day ago
0 STARLINK-34576
1 64701U 25142F   25241.98777980  .00065163  00000-0  14783-2 0  9997
2 64701  70.0014  79.8807 0002985 288.5119  71.5738 15.42724494 10700
Epoch: 2025-08-29T23:42Z
TLE epoch observation values (Epoch: 2025-08-29T23:42:24.174Z)
Latitude
-0.00007°
Longitude
105.85141°
Altitude
439.901 km
Speed
7.649 km/s
True Right ascension
05h 19m 31s
True Declination
0° 00' 00"
Sunlit
Object was in daylight at epoch
Visualization orbit readout
Latitude
Unknown
Longitude
Unknown
Altitude
Unknown
Speed
Unknown
Apparent Right ascension
Unknown
Apparent Declination
Unknown
Sunlit
N/A
Visualization observer readout
Local Sidereal Time
16:40:13
Azimuth
Unknown
Elevation
Unknown
Doppler factor
Unknown
Orbital elements
Apogee altitude
438.014 km
Perigee altitude
433.946 km
Semi-major axis
6,814.117 km
Eccentricity
0.0003
Inclination
70.0014°
RAAN
79.8807°
Arg. of periapsis
288.5119°
True anomaly
71.60626°
Mean anomaly
71.5738°
Eccentric anomaly
71.59003°
Mean motion
3.85859 °/min
Orbital period
93.3 mins
BSTAR
0.0014783
Loading maneuver chart data...
Computing Atmospheric mass density...
Loading historical data...
Loading historical data...
Loading historical data...
Loading historical data...
Loading historical data...
Loading historical data...
Loading historical data...

Documentation

Showing up to 5 results
|